EW7670 Weather Reports


time (UTC)temp
F
wind
direction
speed
knots
gust
knots
rain 1hr
in
rain 24hr
in
rain mn
in
humidity
%
barometer
mb
20260506044530 68 171 7.8 18.2 0.00 0.00 0.00 77 1016.2
20260506043102 68 179 9.6 20.0 0.00 0.00 0.00 77 1016.4
20260506041555 68 161 9.6 19.1 0.00 0.00 0.00 77 1016.4
20260506040129 68 186 9.6 18.2 0.00 0.00 0.00 76 1016.4
20260506033135 68 200 10.4 20.9 0.00 0.00 0.00 77 1016.4
20260506021700 68 197 10.4 20.0 0.00 0.00 0.00 76 1016.8
20260506020021 68 183 9.6 20.0 0.00 0.00 0.00 77 1016.8
20260506013152 68 175 11.3 19.1 0.00 0.00 0.00 75 1016.7
20260506010118 69 194 13.0 26.1 0.00 0.00 0.00 77 1016.5
20260505234513 69 195 14.8 24.3 0.00 0.00 0.00 78 1015.7
20260505220040 70 213 9.6 17.4 0.00 0.00 0.00 79 1015.7
20260505211657 71 201 11.3 18.2 0.00 0.00 0.00 77 1015.4
20260505204614 71 214 9.6 17.4 0.00 0.00 0.00 77 1015.8
20260505194655 71 236 9.6 16.5 0.00 0.00 0.00 77 1016.3
20260505193106 71 210 9.6 15.6 0.00 0.00 0.00 79 1016.5
20260505183150 71 217 8.7 13.9 0.00 0.00 0.00 79 1016.7
20260505180155 71 208 8.7 13.9 0.00 0.00 0.00 78 1016.9
20260505171516 71 212 8.7 13.0 0.00 0.00 0.00 73 1017.0
20260505170014 71 237 7.0 11.3 0.00 0.00 0.00 74 1017.3
20260505163142 70 210 7.0 11.3 0.00 0.00 0.00 74 1017.3
20260505081548 65 235 8.7 12.2 0.00 0.00 0.00 87 1015.6
20260505070106 65 208 8.7 15.6 0.00 0.00 0.00 84 1015.2
20260505060052 65 195 11.3 17.4 0.00 0.00 0.00 82 1015.5
20260505054533 65 199 13.0 18.2 0.00 0.00 0.00 82 1015.5
20260505053108 65 204 12.2 18.2 0.00 0.00 0.00 81 1015.7
20260505051537 65 182 12.2 17.4 0.00 0.00 0.00 82 1015.8